Stations météo

Publicité
Grenoble/St.Geoirs, France (7486): Température de l'air & dewpoint: 17.01.2017 01:00:00 - 23.01.2017 01:00:00 (CET)Grenoble/St.Geoirs, France (7486): Température de l'air 5cm: 17.01.2017 01:00:00 - 23.01.2017 01:00:00 (CET)Grenoble/St.Geoirs, France (7486): Température de l'air -20cm & Température de l'air -100cm: 17.01.2017 01:00:00 - 23.01.2017 01:00:00 (CET)Grenoble/St.Geoirs, France (7486): Vitesse du vent & gusts: 17.01.2017 01:00:00 - 23.01.2017 01:00:00 (CET)Grenoble/St.Geoirs, France (7486): Direction du vent: 17.01.2017 01:00:00 - 23.01.2017 01:00:00 (CET)Grenoble/St.Geoirs, France (7486): reduced air pressure: 17.01.2017 01:00:00 - 23.01.2017 01:00:00 (CET)Grenoble/St.Geoirs, France (7486): visibility: 17.01.2017 01:00:00 - 23.01.2017 01:00:00 (CET)Grenoble/St.Geoirs, France (7486): Ensoleillement: 17.01.2017 01:00:00 - 23.01.2017 01:00:00 (CET)Grenoble/St.Geoirs, France (7486): Quantités de précipitations: 17.01.2017 01:00:00 - 23.01.2017 01:00:00 (CET)
Date & Time tt [°C] td [°C] tt 5cm [°C] tt -20cm [°C] tt -100cm [°C] ff [km/h] ff [knt] fx [km/h] fx [knt] dd ppp [hPa] vv [km] sd [min] rr [mm]
23.01.2017 01:00:00 -6,8 -8,5 -8,2 1,6 5,3 7 4 16 9 ESE 1025,6 6 0 0,0
23.01.2017 00:00:00 -6,2 -8,0 -7,9 1,7 5,3 10 5 13 7 ESE 1025,9 6 0 0,0
22.01.2017 23:00:00 -6,3 -8,1 -9,0 1,6 5,3 10 5 12 6 ESE 1025,9 5 0 0,0
22.01.2017 22:00:00 -3,9 -5,7 -6,2 1,7 5,3 6 3 11 6 NE 1025,5 6 0 0,0
22.01.2017 21:00:00 -3,2 -5,4 -4,8 1,7 5,3 10 5 15 8 E 1025,1 6 0 0,0
22.01.2017 20:00:00 -4,0 -6,0 -4,9 1,7 5,4 10 5 13 7 E 1025,2 8 0 0,0
22.01.2017 19:00:00 -2,1 -4,3 -3,5 1,6 5,3 4 2 5 3 N 1024,7 7 0 0,0
22.01.2017 18:00:00 -1,6 -4,0 -2,6 1,7 5,4 0 0 9 5 N 1023,9 7 6 0,0
22.01.2017 17:00:00 -1,3 -4,1 -1,6 1,7 5,4 6 3 9 5 NE 1024,0 7 13 0,0
22.01.2017 16:00:00 0,5 -3,4 1,7 1,7 5,3 3 2 7 4 NE 1023,3 7 8 0,0
22.01.2017 15:00:00 0,2 -3,5 1,3 1,6 5,3 5 3 11 6 E 1023,4 8 10 0,0
22.01.2017 14:00:00 0,1 -3,8 0,7 1,7 5,4 6 3 14 7 E 1023,0 7 17 0,0
22.01.2017 13:00:00 -0,7 -4,1 0,4 1,7 5,4 10 6 13 7 E 1023,8 4,1 4 0,0
22.01.2017 12:00:00 -1,8 -4,1 -2,3 1,7 5,4 11 6 15 8 ESE 1025,1 6 0 0,0
22.01.2017 11:00:00 -3,6 -5,3 -4,4 1,7 5,4 8 5 13 7 ESE 1025,6 4,3 0 0,0
22.01.2017 10:00:00 -4,4 -5,9 -8,5 1,7 5,3 8 4 15 8 E 1025,5 6 0 0,0
22.01.2017 09:00:00 -7,2 -8,4 -10,7 1,7 5,4 4 2 9 5 ESE 1025,6 3,8 6 0,0
22.01.2017 08:00:00 -7,6 -8,7 -10,9 1,7 5,4 4 2 11 6 SSE 1025,2 3,7 0 0,0
22.01.2017 07:00:00 -8,4 -9,9 -10,7 1,7 5,4 8 4 10 5 SE 1025,5 2,9 0 0,0
22.01.2017 06:00:00 -8,4 -9,5 -11,9 1,7 5,4 5 3 12 6 ENE 1025,4 3,4 0 0,0
22.01.2017 05:00:00 -8,5 -9,7 -11,1 1,7 5,4 5 3 12 6 SE 1025,7 2,6 0 0,0
22.01.2017 04:00:00 -7,6 -8,8 -10,3 1,7 5,4 5 3 9 5 SE 1026,1 3,6 0 0,0
22.01.2017 03:00:00 -8,0 -9,2 -9,9 1,8 5,4 4 2 14 7 E 1026,4 3,2 0 0,0
22.01.2017 02:00:00 -7,5 -8,4 -10,9 1,8 5,4 11 6 14 8 ESE 1026,8 2,7 0 0,0
22.01.2017 01:00:00 -8,2 -9,4 -12,0 1,8 5,4 7 4 10 6 SE 1027,5 2,9 0 0,0
22.01.2017 00:00:00 -8,3 -9,2 -11,7 1,8 5,4 4 2 11 6 ESE 1027,7 2,5 0 0,0
21.01.2017 23:00:00 -7,7 -8,6 -11,9 1,8 5,4 3 2 11 6 ESE 1027,6 2,5 0 0,0
21.01.2017 22:00:00 -7,1 -7,6 -11,6 1,8 5,4 6 4 10 5 E 1027,5 2,9 0 0,0
21.01.2017 21:00:00 -7,8 -9,3 -11,1 1,8 5,4 6 3 9 5 ESE 1027,7 3,8 0 0,0
21.01.2017 20:00:00 -5,5 -7,6 -10,1 1,8 5,4 6 4 9 5 ESE 1027,4 4,5 0 0,0
21.01.2017 19:00:00 -4,2 -6,5 -9,1 1,8 5,5 3 2 5 3 SE 1027,0 6 0 0,0
21.01.2017 18:00:00 -1,5 -5,4 -6,0 1,8 5,5 5 3 20 11 ENE 1026,0 8 5 0,0
21.01.2017 17:00:00 0,4 -4,1 -0,3 1,8 5,4 16 9 20 11 N 1025,4 9 60 0,0
21.01.2017 16:00:00 2,1 -3,4 4,9 1,8 5,4 6 4 9 5 N 1025,2 10 60 0,0
21.01.2017 15:00:00 2,1 -3,0 5,5 1,8 5,5 10 5 16 9 NNE 1025,5 9 60 0,0
21.01.2017 14:00:00 3,0 -3,4 5,7 1,8 5,5 0 0 8 4 N 1025,9 7 60 0,0
21.01.2017 13:00:00 1,5 -3,8 3,8 1,8 5,5 6 4 9 5 E 1026,8 7 60 0,0
21.01.2017 12:00:00 0,6 -4,1 0,2 1,8 5,5 6 3 25 13 E 1027,8 7 60 0,0
21.01.2017 11:00:00 -1,2 -4,9 -0,6 1,8 5,5 16 8 30 16 E 1028,6 6 60 0,0
21.01.2017 10:00:00 -1,7 -5,6 -3,5 1,8 5,5 9 5 22 12 ENE 1028,5 7 60 0,0
21.01.2017 09:00:00 -3,7 -6,3 -4,7 1,8 5,5 9 5 28 15 ENE 1028,8 7 25 0,0
21.01.2017 08:00:00 -3,8 -6,1 -4,8 1,8 5,5 14 8 33 18 E 1028,4 7 0 0,0
21.01.2017 07:00:00 -4,0 -6,1 -5,1 1,8 5,5 22 12 30 16 E 1028,4 6 0 0,0
21.01.2017 06:00:00 -3,4 -5,6 -5,6 1,8 5,5 21 11 30 16 E 1028,2 7 0 0,0
21.01.2017 05:00:00 -4,8 -6,5 -5,9 1,8 5,5 18 10 27 15 E 1029,1 6 0 0,0
21.01.2017 04:00:00 -4,3 -6,1 -6,4 1,9 5,5 20 11 31 17 E 1029,7 6 0 0,0
21.01.2017 03:00:00 -5,1 -6,9 -6,3 1,9 5,5 16 9 24 13 E 1029,9 6 0 0,0
21.01.2017 02:00:00 -4,1 -5,8 -6,7 1,9 5,5 16 9 25 14 E 1029,6 7 0 0,0
21.01.2017 01:00:00 -4,3 -5,7 -8,7 1,9 5,5 15 8 21 11 E 1029,9 7 0 0,0
21.01.2017 00:00:00 -7,0 -8,9 -8,9 1,9 5,6 12 7 18 10 E 1030,7 7 0 0,0
20.01.2017 23:00:00 -6,6 -9,2 -9,4 1,9 5,5 11 6 21 11 E 1030,8 6 0 0,0
20.01.2017 22:00:00 -6,0 -7,8 -10,0 1,9 5,5 14 7 16 9 E 1030,4 6 0 0,0
20.01.2017 21:00:00 -6,1 -8,4 -9,2 1,9 5,6 8 5 17 9 ENE 1030,5 6 0 0,0
20.01.2017 20:00:00 -3,8 -6,6 -8,0 1,9 5,6 9 5 20 11 E 1030,0 7 0 0,0
20.01.2017 19:00:00 -4,6 -7,0 -8,9 1,9 5,6 10 5 14 8 E 1030,0 6 0 0,0
20.01.2017 18:00:00 -2,5 -6,2 -7,6 1,9 5,6 9 5 13 7 E 1029,5 7 3 0,0
20.01.2017 17:00:00 -0,8 -5,4 -3,2 1,9 5,6 8 4 16 9 E 1029,1 8 60 0,0
20.01.2017 16:00:00 0,6 -4,1 2,1 1,9 5,6 11 6 19 10 E 1029,0 9 60 0,0
20.01.2017 15:00:00 0,4 -4,1 2,3 1,9 5,6 16 9 26 14 E 1029,1 8 60 0,0
20.01.2017 14:00:00 -0,2 -4,6 1,5 2,0 5,6 20 11 28 15 E 1029,4 7 60 0,0
20.01.2017 13:00:00 -1,0 -5,1 0,6 2,0 5,6 22 12 32 17 ESE 1030,4 6 60 0,0
20.01.2017 12:00:00 -1,6 -5,5 -0,9 2,0 5,6 21 11 28 15 ESE 1030,8 6 60 0,0
20.01.2017 11:00:00 -2,6 -5,9 -2,9 2,0 5,6 21 11 30 16 ESE 1031,2 5 60 0,0
20.01.2017 10:00:00 -4,3 -6,8 -6,0 2,0 5,6 19 10 27 15 E 1031,6 5 60 0,0
20.01.2017 09:00:00 -5,8 -7,6 -7,6 2,0 5,6 19 11 26 14 E 1031,3 7 24 0,0
20.01.2017 08:00:00 -6,6 -8,1 -8,0 2,0 5,6 20 11 25 14 E 1031,3 6 0 0,0
20.01.2017 07:00:00 -6,4 -8,1 -10,3 2,0 5,6 22 12 30 16 E 1030,9 6 0 0,0
20.01.2017 06:00:00 -7,4 -8,8 -11,4 2,1 5,6 16 8 21 11 ESE 1031,0 5 0 0,0
20.01.2017 05:00:00 -9,2 -10,8 -11,5 2,1 5,7 13 7 18 10 E 1031,6 5 0 0,0
20.01.2017 04:00:00 -8,6 -10,1 -14,6 2,1 5,6 16 9 19 11 E 1031,5 5 0 0,0
20.01.2017 03:00:00 -9,6 -10,7 -14,6 2,1 5,7 6 3 9 5 ESE 1031,9 4,8 0 0,0
20.01.2017 02:00:00 -10,5 -12,2 -14,9 2,1 5,7 9 5 13 7 E 1031,9 6 0 0,0
20.01.2017 01:00:00 -11,1 -12,8 -13,8 2,1 5,7 3 1 12 6 SE 1032,5 4,0 0 0,0
20.01.2017 00:00:00 -11,7 -13,1 -14,5 2,1 5,7 7 4 11 6 E 1032,8 3,2 0 0,0
19.01.2017 23:00:00 -11,0 -12,6 -14,5 2,1 5,6 4 2 9 5 E 1032,9 3,2 0 0,0
19.01.2017 22:00:00 -9,0 -10,5 -13,5 2,1 5,7 5 3 10 5 E 1032,6 3,8 0 0,0
19.01.2017 21:00:00 -7,6 -10,0 -11,2 2,2 5,7 3 2 6 4 SE 1032,2 4,8 0 0,0
19.01.2017 20:00:00 -5,8 -8,5 -10,6 2,1 5,7 5 3 13 7 E 1031,5 5 0 0,0
19.01.2017 19:00:00 -5,3 -8,4 -10,3 2,1 5,7 5 3 17 9 E 1031,1 6 0 0,0
19.01.2017 18:00:00 -4,2 -7,6 -6,3 2,2 5,7 11 6 16 8 NE 1030,5 8 2 0,0
19.01.2017 17:00:00 -2,7 -6,9 -3,7 2,2 5,7 11 6 16 8 NNE 1030,0 9 60 0,0
19.01.2017 16:00:00 -1,2 -6,2 1,2 2,2 5,7 11 6 18 10 N 1029,6 10 60 0,0
19.01.2017 15:00:00 -0,6 -5,8 2,3 2,2 5,7 10 5 15 8 E 1029,6 12 60 0,0
19.01.2017 14:00:00 -0,5 -5,9 2,8 2,2 5,7 9 5 14 7 E 1029,8 10 60 0,0
19.01.2017 13:00:00 -0,8 -6,6 2,9 2,2 5,7 8 4 11 6 E 1030,4 9 60 0,0
19.01.2017 12:00:00 -4,5 -7,1 -0,4 2,3 5,7 4 2 11 6 NW 1031,3 7 60 0,0
19.01.2017 11:00:00 -3,5 -7,8 -6,5 2,3 5,7 8 4 16 9 E 1031,3 8 60 0,0
19.01.2017 10:00:00 -8,0 -9,6 -13,5 2,3 5,7 3 2 8 4 ESE 1031,6 5 60 0,0
19.01.2017 09:00:00 -10,4 -11,3 -17,1 2,3 5,7 4 2 10 5 ESE 1031,7 5 23 0,0
19.01.2017 08:00:00 -11,5 -12,8 -17,0 2,3 5,7 6 3 8 4 SE 1031,3 4,5 0 0,0
19.01.2017 07:00:00 -11,6 -13,0 -16,4 2,4 5,8 5 3 9 5 ESE 1030,8 5 0 0,0
19.01.2017 06:00:00 -11,1 -12,1 -16,6 2,3 5,7 4 2 7 4 ESE 1030,5 4,3 0 0,0
19.01.2017 05:00:00 -11,1 -12,6 -16,3 2,4 5,7 6 4 8 4 SE 1030,5 5 0 0,0
19.01.2017 04:00:00 -10,8 -12,0 -16,1 2,4 5,7 5 3 7 4 ESE 1030,5 6 0 0,0
19.01.2017 03:00:00 -10,5 -11,8 -15,8 2,4 5,8 0 0 7 4 N 1030,2 6 0 0,0
19.01.2017 02:00:00 -10,4 -11,7 -14,9 2,4 5,8 5 3 11 6 SE 1029,9 6 0 0,0
19.01.2017 01:00:00 -10,8 -12,5 -13,9 2,4 5,7 7 4 13 7 SSE 1030,0 3,9 0 0,0
19.01.2017 00:00:00 -8,9 -10,5 -13,1 2,4 5,8 5 3 7 4 S 1029,5 5 0 0,0
18.01.2017 23:00:00 -8,9 -11,0 -13,1 2,4 5,7 2 1 10 6 S 1029,7 8 0 0,0
18.01.2017 22:00:00 -7,4 -10,3 -10,6 2,4 5,8 6 3 15 8 E 1029,5 8 0 0,0
18.01.2017 21:00:00 -7,4 -9,6 -11,5 2,4 5,8 10 5 16 9 NNE 1029,6 11 0 0,0
18.01.2017 20:00:00 -8,2 -10,3 -12,6 2,4 5,8 8 5 11 6 NNE 1029,9 9 0 0,0
18.01.2017 19:00:00 -7,3 -10,0 -11,3 2,4 5,8 6 3 10 5 NE 1029,9 10 0 0,0
18.01.2017 18:00:00 -6,0 -9,2 -11,4 2,4 5,8 6 3 10 5 NE 1029,6 12 0 0,0
18.01.2017 17:00:00 -4,7 -8,8 -6,7 2,4 5,8 7 4 13 7 N 1029,0 15 58 0,0
18.01.2017 16:00:00 -3,1 -7,6 -2,7 2,4 5,8 12 6 18 10 NNW 1028,4 18 7 0,0
18.01.2017 15:00:00 -2,6 -7,3 -1,0 2,4 5,8 11 6 19 10 N 1027,9 15 4 0,0
18.01.2017 14:00:00 -2,6 -7,1 -0,8 2,4 5,8 9 5 16 9 N 1027,9 14 6 0,0
18.01.2017 13:00:00 -3,2 -7,4 -1,4 2,5 5,8 11 6 18 10 NNW 1027,9 15 1 0,0
18.01.2017 12:00:00 -3,6 -7,6 -2,6 2,5 5,8 10 6 18 10 N 1028,1 15 0 0,0
18.01.2017 11:00:00 -4,5 -7,6 -3,7 2,5 5,8 11 6 28 15 NNW 1028,1 15 0 0,0
18.01.2017 10:00:00 -4,6 -7,7 -4,7 2,5 5,8 16 8 23 12 N 1027,8 14 0 0,0
18.01.2017 09:00:00 -4,9 -7,8 -5,1 2,5 5,8 11 6 16 9 N 1027,6 14 0 0,0
18.01.2017 08:00:00 -4,9 -8,0 -5,1 2,5 5,8 11 6 16 9 N 1026,7 16 0 0,0
18.01.2017 07:00:00 -4,9 -7,7 -5,1 2,5 5,8 9 5 15 8 N 1026,4 15 0 0,0
18.01.2017 06:00:00 -5,0 -7,9 -5,2 2,5 5,8 9 5 20 11 N 1026,5 16 0 0,0
18.01.2017 05:00:00 -5,0 -7,8 -5,4 2,5 5,8 11 6 15 8 N 1026,5 17 0 0,0
18.01.2017 04:00:00 -5,4 -7,7 -6,1 2,5 5,8 6 3 13 7 NW 1026,7 17 0 0,0
18.01.2017 03:00:00 -5,2 -7,6 -6,1 2,6 5,8 4 2 15 8 NNE 1026,7 17 0 0,0
18.01.2017 02:00:00 -6,0 -8,1 -10,5 2,6 5,8 9 5 13 7 NNW 1026,6 17 0 0,0
18.01.2017 01:00:00 -7,2 -8,8 -10,3 2,6 5,9 0 0 11 6 N 1027,1 17 0 0,0
18.01.2017 00:00:00 -7,9 -9,4 -11,4 2,6 5,9 11 6 14 8 N 1027,1 17 0 0,0
17.01.2017 23:00:00 -6,6 -9,2 -8,3 2,6 5,9 9 5 22 12 NNE 1026,5 18 0 0,0
17.01.2017 22:00:00 -5,3 -8,2 -6,1 2,6 5,8 17 9 25 13 N 1026,0 19 0 0,0
17.01.2017 21:00:00 -4,8 -7,9 -5,9 2,6 5,9 17 9 26 14 N 1025,6 24 0 0,0
17.01.2017 20:00:00 -4,0 -7,6 -4,7 2,6 5,8 16 8 29 16 N 1024,9 25 0 0,0
17.01.2017 19:00:00 -3,1 -7,1 -3,6 2,6 5,8 18 10 26 14 N 1024,3 28 0 0,0
17.01.2017 18:00:00 -2,9 -7,1 -3,3 2,6 5,9 20 11 34 18 N 1023,7 27 0 0,0
17.01.2017 17:00:00 -2,0 -6,4 -2,3 2,6 5,9 20 11 34 18 N 1022,9 28 0 0,0
17.01.2017 16:00:00 -2,0 -6,6 -1,6 2,6 5,9 14 7 26 14 N 1022,8 38 0 0,0
17.01.2017 15:00:00 -2,1 -6,3 -1,3 2,7 5,9 18 10 29 16 NNW 1022,6 20 0 0,0
17.01.2017 14:00:00 -2,2 -6,8 -1,5 2,6 5,9 17 9 29 16 N 1022,6 25 0 0,0
17.01.2017 13:00:00 -2,9 -6,5 -1,9 2,7 5,9 18 10 26 14 N 1023,2 24 0 0,0
17.01.2017 12:00:00 -3,6 -7,0 -2,6 2,7 5,9 15 8 27 14 N 1023,5 20 0 0,0
17.01.2017 11:00:00 -4,3 -7,7 -4,3 2,7 5,9 14 7 32 17 NNW 1023,8 18 0 0,0
17.01.2017 10:00:00 -5,0 -7,9 -5,1 2,7 5,9 20 11 29 16 N 1023,5 18 0 0,0
17.01.2017 09:00:00 -5,3 -8,0 -5,7 2,7 5,9 18 10 27 15 NNW 1023,2 20 0 0,0
17.01.2017 08:00:00 -5,5 -8,1 -5,9 2,8 5,9 9 5 21 12 NW 1022,8 16 0 0,0
17.01.2017 07:00:00 -5,5 -8,2 -5,8 2,8 5,9 13 7 25 14 N 1022,5 10 0 0,0
17.01.2017 06:00:00 -5,3 -8,0 -5,7 2,8 5,9 13 7 27 15 N 1022,2 10 0 0,0
17.01.2017 05:00:00 -5,1 -7,9 -5,5 2,8 5,9 20 11 34 18 N 1022,4 15 0 0,0
17.01.2017 04:00:00 -5,1 -7,7 -5,9 2,9 5,9 18 10 40 22 N 1022,5 10 0 0,0
17.01.2017 03:00:00 -4,7 -7,6 -5,3 2,9 5,9 17 9 32 18 N 1022,5 24 0 0,0
17.01.2017 02:00:00 -4,8 -7,9 -6,1 2,9 5,9 16 9 39 21 N 1022,2 28 0 0,0
17.01.2017 01:00:00 -4,7 -7,8 -5,9 2,9 5,9 15 8 39 21 NNE 1022,4 29 0 0,0

tt = Température de l'air
td = dewpoint
tt 5cm = Température de l'air 5cm
tt -20cm = Température de l'air -20cm
tt -100cm = Température de l'air -100cm
ff = Vitesse du vent
fx = gusts
dd = Direction du vent
ppp = reduced air pressure
vv = visibility
sd = Ensoleillement
rr = Quantités de précipitations

stations d'obs. à proximité